Weather in Verkhniy Shergoldzhin

Russia / Zabaykalsky Krai     50°11′25″N   108°19′26″E
temp.,
°C
wind,
m/s
gust,
m/s
humid.,
%
clouds,
%
prec.,
mm/h
press.,
hPa
HPBL,
m
20 september, mon
mon2000:00+9sw1192100 0.0 101317
03:00+8s0193100 0.0 101212
06:00+7e119583 0.0 101210
09:00+9se1189100 0.0 101187
12:00+15ese2164100 0.0 1008599
15:00+17e335511 0.1 10061403
18:00+15e22631 0.0 1005612
21:00+9ne11930 0.0 100610
21 september, tue
tue2100:00+8ese11922 0.0 100511
03:00+7ese01940 0.0 100512
06:00+6nnw11941 0.0 100611
09:00+9nnw238725 0.0 1007147
12:00+10n3383100 0.3 1008608
15:00+6n2396100 3.0 1009245
18:00+6n2496100 4.1 1010354
21:00+4n1294100 4.3 1013167
22 september, wed
wed2200:00+5nw1194100 0.0 1013108
03:00+5s119696 0.0 101372
06:00+5ssw119896 0.0 101487
09:00+5e018899 0.0 1014368
12:00+9ene1175100 0.0 1013582
15:00+12ne2260100 0.0 1010919
18:00+8n378049 0.4 1011537
21:00+6n258776 0.4 1013286
23 september, thu
thu2300:00+6n128842 0.0 101588
03:00+5wnw1189100 0.0 101663
06:00+5w1293100 0.1 1018202
09:00+5wsw1291100 0.2 1020287
12:00+6sw2273100 0.2 1020860
15:00+8ssw116295 0.3 10201081
18:00+9se115627 0.0 1018932
21:00+3nne118991 0.0 102210
24 september, fri
fri2400:00+2nne119346 0.0 102211
03:00+1ne1194100 0.0 102117
06:00+1ne119497 0.0 102016
09:00+4nne128089 0.0 1019105
12:00+10ene115745 0.1 1016552
15:00+14ne224816 0.1 10151296
18:00+11n346554 0.0 1016657
21:00+5n22922 0.0 101930